TimeCST,TemperatureF,Dew PointF,Humidity,Sea Level PressureIn,VisibilityMPH,Wind Direction,Wind SpeedMPH,Gust SpeedMPH,PrecipitationIn,Events,Conditions,WindDirDegrees,DateUTC
12:15 AM,-0.4,-5.8,78,30.08,2.0,North,-9999.0,-,0.01,Snow,Light Snow,0,2014-03-01 06:15:00
12:35 AM,-2.2,-7.6,78,30.10,3.0,NE,6.9,-,0.02,Snow,Light Snow,50,2014-03-01 06:35:00
12:55 AM,-2.2,-7.6,78,30.09,3.0,NE,6.9,-,0.03,Snow,Light Snow,50,2014-03-01 06:55:00
1:15 AM,-2.2,-7.6,78,30.09,3.0,NE,5.8,-,N/A,Snow,Light Snow,40,2014-03-01 07:15:00
1:35 AM,-2.2,-7.6,78,30.11,3.0,NE,5.8,-,0.02,Snow,Light Snow,50,2014-03-01 07:35:00
1:55 AM,-2.2,-7.6,78,30.11,2.5,NE,3.5,-,0.04,Snow,Light Snow,40,2014-03-01 07:55:00
2:15 AM,-2.2,-7.6,78,30.10,3.0,NNE,4.6,-,0.02,Snow,Light Snow,30,2014-03-01 08:15:00
2:35 AM,-2.2,-7.6,78,30.10,3.0,ENE,5.8,-,0.05,Snow,Light Snow,60,2014-03-01 08:35:00
2:55 AM,-2.2,-7.6,78,30.09,3.0,NE,6.9,-,0.08,Snow,Light Snow,40,2014-03-01 08:55:00
3:15 AM,-2.2,-7.6,78,30.10,5.0,NE,4.6,-,N/A,Snow,Light Snow,40,2014-03-01 09:15:00
3:35 AM,-2.2,-7.6,78,30.11,4.0,NE,4.6,-,0.04,Snow,Light Snow,40,2014-03-01 09:35:00
3:55 AM,-2.2,-7.6,78,30.10,3.0,NNE,5.8,-,0.05,Snow,Light Snow,30,2014-03-01 09:55:00
4:15 AM,-2.2,-7.6,78,30.11,8.0,NNE,4.6,-,N/A,Snow,Light Snow,20,2014-03-01 10:15:00
4:35 AM,-2.2,-7.6,78,30.11,7.0,NNE,4.6,-,0.01,Snow,Light Snow,30,2014-03-01 10:35:00
4:55 AM,-2.2,-7.6,78,30.12,8.0,NNE,5.8,-,0.03,Snow,Light Snow,20,2014-03-01 10:55:00
5:15 AM,-2.2,-9.4,71,30.14,3.0,North,6.9,-,0.03,Snow,Light Snow,350,2014-03-01 11:15:00
5:35 AM,-2.2,-9.4,71,30.14,2.5,North,6.9,-,0.16,Snow,Light Snow,360,2014-03-01 11:35:00
5:55 AM,-4.0,-9.4,78,30.15,2.5,North,5.8,-,0.24,Snow,Light Snow,360,2014-03-01 11:55:00
6:15 AM,-4.0,-9.4,78,30.14,1.5,NNW,5.8,-,0.16,Snow,Light Snow,340,2014-03-01 12:15:00
6:35 AM,-4.0,-9.4,78,30.15,3.0,North,-9999.0,-,0.26,Snow,Light Snow,0,2014-03-01 12:35:00
6:55 AM,-4.0,-9.4,78,30.14,2.5,North,-9999.0,-,0.32,Snow,Light Snow,0,2014-03-01 12:55:00
7:15 AM,-4.0,-9.4,78,30.15,3.0,North,-9999.0,-,0.01,Snow,Light Snow,0,2014-03-01 13:15:00
7:35 AM,-4.0,-11.2,71,30.17,1.8,NNE,5.8,-,0.03,Snow,Light Snow,30,2014-03-01 13:35:00
7:55 AM,-4.0,-11.2,71,30.17,4.0,NNE,8.1,-,0.04,Snow,Light Snow,30,2014-03-01 13:55:00
8:15 AM,-5.8,-11.2,77,30.18,3.0,NNE,8.1,-,N/A,Snow,Light Snow,30,2014-03-01 14:15:00
8:35 AM,-5.8,-11.2,77,30.19,5.0,NNE,8.1,-,N/A,Snow,Light Snow,30,2014-03-01 14:35:00
8:55 AM,-5.8,-11.2,77,30.20,1.8,NE,6.9,-,N/A,Snow,Light Snow,40,2014-03-01 14:55:00
9:15 AM,-5.8,-9999,N/A,30.22,2.5,ENE,4.6,-,N/A,Snow,Light Snow,60,2014-03-01 15:15:00
9:35 AM,-5.8,-11.2,77,30.22,0.8,NE,10.4,-,0.03,Snow,Light Snow,40,2014-03-01 15:35:00
9:55 AM,-7.6,-13.0,77,30.19,0.8,NE,11.5,-,0.08,Snow,Light Snow,50,2014-03-01 15:55:00
10:15 AM,-7.6,-13.0,77,30.21,1.8,NE,6.9,-,0.01,Snow,Light Snow,40,2014-03-01 16:15:00
10:35 AM,-7.6,-13.0,77,30.22,1.0,NE,8.1,-,0.04,Snow,Light Snow,40,2014-03-01 16:35:00
10:55 AM,-7.6,-13.0,77,30.20,1.0,NE,9.2,-,0.11,Snow,Light Snow,50,2014-03-01 16:55:00
11:15 AM,-9.4,-14.8,77,30.21,1.0,NE,11.5,-,0.02,Snow,Light Snow,40,2014-03-01 17:15:00
11:35 AM,-9.4,-14.8,77,30.20,1.5,NE,12.7,-,0.04,Snow,Light Snow,50,2014-03-01 17:35:00
11:55 AM,-9.4,-14.8,77,30.20,2.5,NE,11.5,-,0.05,Snow,Light Snow,40,2014-03-01 17:55:00
12:15 PM,-9.4,-14.8,77,30.22,3.0,NE,10.4,-,N/A,,Haze,40,2014-03-01 18:15:00
12:35 PM,-9.4,-14.8,77,30.22,3.0,NE,12.7,-,N/A,,Haze,50,2014-03-01 18:35:00
12:55 PM,-9.4,-16.6,71,30.21,1.8,ENE,12.7,-,N/A,Snow,Light Snow,60,2014-03-01 18:55:00
1:15 PM,-9.4,-16.6,71,30.20,2.5,NE,15.0,-,N/A,,Haze,40,2014-03-01 19:15:00
1:35 PM,-9.4,-16.6,71,30.20,3.0,ENE,11.5,-,N/A,,Haze,60,2014-03-01 19:35:00
1:55 PM,-9.4,-16.6,71,30.19,3.0,ENE,10.4,-,N/A,,Haze,70,2014-03-01 19:55:00
2:15 PM,-9.4,-16.6,71,30.19,5.0,North,-9999.0,-,N/A,,Haze,0,2014-03-01 20:15:00
2:35 PM,-9.4,-16.6,71,30.19,5.0,North,-9999.0,-,N/A,,Haze,0,2014-03-01 20:35:00
2:55 PM,-11.2,-16.6,77,30.19,4.0,North,-9999.0,-,N/A,Snow,Light Snow,0,2014-03-01 20:55:00
3:15 PM,-11.2,-16.6,77,30.18,1.5,North,-9999.0,-,N/A,Snow,Light Snow,0,2014-03-01 21:15:00
3:35 PM,-11.2,-16.6,77,30.19,0.8,North,-9999.0,-,0.02,Snow,Light Snow,0,2014-03-01 21:35:00
3:55 PM,-11.2,-16.6,77,30.19,1.2,North,-9999.0,-,0.04,Snow,Light Snow,0,2014-03-01 21:55:00
4:15 PM,-9.4,-16.6,71,30.19,2.0,North,-9999.0,-,N/A,Snow,Light Snow,0,2014-03-01 22:15:00
4:35 PM,-9.4,-16.6,71,30.20,9.0,North,-9999.0,-,0.01,Snow,Light Snow,0,2014-03-01 22:35:00
4:55 PM,-11.2,-16.6,77,30.20,10.0,North,-9999.0,-,0.01,Snow,Light Snow,0,2014-03-01 22:55:00
5:15 PM,-9.4,-16.6,71,30.20,9.0,North,-9999.0,-,N/A,,Clear,0,2014-03-01 23:15:00
5:35 PM,-11.2,-16.6,77,30.20,9.0,North,-9999.0,-,N/A,,Clear,0,2014-03-01 23:35:00
5:55 PM,-11.2,-16.6,77,30.21,10.0,North,-9999.0,-,N/A,,Clear,0,2014-03-01 23:55:00
6:15 PM,-11.2,-18.4,70,30.21,8.0,North,-9999.0,-,N/A,,Clear,0,2014-03-02 00:15:00
6:35 PM,-9999,-9999,N/A,30.21,10.0,North,-9999.0,-,N/A,,Clear,0,2014-03-02 00:35:00
6:55 PM,-13.0,-18.4,77,30.22,5.0,North,-9999.0,-,N/A,,Haze,0,2014-03-02 00:55:00
7:15 PM,-13.0,-18.4,77,30.22,10.0,North,-9999.0,-,N/A,,Clear,0,2014-03-02 01:15:00
7:35 PM,-13.0,-18.4,77,30.23,10.0,ENE,6.9,-,N/A,,Partly Cloudy,60,2014-03-02 01:35:00
7:55 PM,-13.0,-18.4,77,30.23,10.0,ESE,3.5,-,N/A,,Scattered Clouds,110,2014-03-02 01:55:00
8:15 PM,-11.2,-18.4,70,30.23,10.0,East,4.6,-,N/A,,Overcast,100,2014-03-02 02:15:00
8:35 PM,-11.2,-18.4,70,30.23,10.0,ESE,5.8,-,N/A,,Overcast,110,2014-03-02 02:35:00
8:55 PM,-13.0,-18.4,77,30.22,10.0,ESE,6.9,-,N/A,,Mostly Cloudy,120,2014-03-02 02:55:00
9:15 PM,-11.2,-18.4,70,30.22,10.0,ESE,5.8,-,N/A,,Overcast,120,2014-03-02 03:15:00
9:35 PM,-13.0,-18.4,77,30.23,10.0,ESE,4.6,-,N/A,Snow,Light Snow,120,2014-03-02 03:35:00
9:55 PM,-13.0,-18.4,77,30.24,10.0,ENE,4.6,-,N/A,,Mostly Cloudy,70,2014-03-02 03:55:00
10:15 PM,-13.0,-18.4,77,30.24,10.0,NE,5.8,-,N/A,,Mostly Cloudy,50,2014-03-02 04:15:00
10:35 PM,-13.0,-20.2,70,30.24,10.0,NE,4.6,-,N/A,,Scattered Clouds,40,2014-03-02 04:35:00
10:55 PM,-13.0,-20.2,70,30.24,10.0,NE,3.5,-,N/A,,Mostly Cloudy,40,2014-03-02 04:55:00
11:15 PM,-13.0,-18.4,77,30.24,10.0,Calm,Calm,-,N/A,,Overcast,0,2014-03-02 05:15:00
11:35 PM,-13.0,-18.4,77,30.23,10.0,Calm,Calm,-,N/A,,Overcast,0,2014-03-02 05:35:00
11:55 PM,-13.0,-18.4,77,30.23,10.0,ESE,3.5,-,N/A,,Overcast,120,2014-03-02 05:55:00